Regional Weather Roundup
Issued by NWS

Home | Current Version | Previous Version | Text Only | Print | Product List | Glossary On
Versions: 1 2 3 4 5 6 7 8 9 10 11 12 13 14 15 16 17 18 19 20 21 22 23 24 25 26 27 28 29 30 31 32 33 34 35 36 37 38 39 40 41 42 43 44 45 46 47 48 49 50
000
ASUS43 KDMX 271307
RWRIA

WEATHER ROUNDUP FOR IOWA
NATIONAL WEATHER SERVICE DES MOINES IA
700 AM CST THU NOV 27 2014

NOTE: "FAIR" INDICATES FEW OR NO CLOUDS BELOW 12,000 FEET WITH NO
SIGNIFICANT WEATHER AND/OR OBSTRUCTIONS TO VISIBILITY.

* - THESE STATIONS ARE NOT NWS STATIONS...THUS NOT UNDER NWS
QUALITY CONTROL.  THEY ALSO DO NOT REPORT WEATHER SUCH
AS PRECIPITATION OR FOG.

IAZ001>003-012>014-020>022-031>034-043>046-271400-
   NORTHWEST IOWA

CITY           SKY/WX    TMP DP  RH WIND       PRES   REMARKS
CARROLL *      PTCLDY     0  -9  65 NW6       30.51R WCI -12
CHEROKEE *     PTCLDY    -4  -8  84 CALM      30.51F
DENISON *      MOCLDY     3  -8  60 NE6       30.48S WCI  -8
LE MARS *      CLEAR      0  -6  78 NE6       30.51F WCI -12
ORANGE CITY *  CLEAR      0  -8  71 CALM      30.48R
SHELDON *      PTCLDY    -8 -13  77 N5        30.48S WCI -19
SIOUX CITY     CLOUDY     9  -6  50 N6        30.53R WCI  -1
SPENCER        PTCLDY   N/A N/A N/A N8        30.49S
STORM LAKE *   CLEAR     -8 -15  71 N7        30.48F WCI -22
$$

IAZ055>058-069>071-079>083-090>094-271400-
   SOUTHWEST IOWA

CITY           SKY/WX    TMP DP  RH WIND       PRES   REMARKS
ATLANTIC *     MOCLDY     7   1  78 NE6       30.50S WCI  -3
AUDUBON *      CLEAR      1  -8  66 CALM      30.50R
CLARINDA *     CLEAR     14  10  85 N6        30.53R WCI   5
COUNCIL BLFS * PTCLDY    14  10  85 N9        30.48R WCI   2
CRESTON *      CLEAR      9   1  72 N8        30.48S WCI  -4
HARLAN  *      CLOUDY     9  -2  61 N9        30.53S WCI  -5
LAMONI         CLOUDY    16  12  84 N8        30.48R WCI   5
RED OAK *      CLOUDY    16  10  79 N12       30.51S WCI   3
SHENANDOAH *   MOCLDY    14  12  92 NE5       30.52S WCI   6
$$

IAZ047>049-059>061-072>074-084-271400-
   CENTRAL IOWA

CITY           SKY/WX    TMP DP  RH WIND       PRES   REMARKS
AMES           MOCLDY    -1  -7  75 NW14      30.51R WCI -20
ANKENY *       CLEAR      3  -4  72 NW10      30.52R WCI -12
CHARITON *     MOCLDY    10   5  79 NW10G20   30.48R WCI  -3
DES MOINES     PTCLDY     6  -2  69 NW10      30.51R WCI  -9
GRINNELL*      CLEAR      3   0  85 NW9       30.47R WCI -11
KNOXVILLE *    CLOUDY     9   0  66 NW16      30.48R WCI  -9
MARSHALLTOWN   PTCLDY     1  -5  75 NW14      30.47R WCI -17
PELLA *        PTCLDY     9   3  78 NW12      30.50R WCI  -6
PERRY *          N/A      1  -4  78 N8        30.52S WCI -12
$$

IAZ004>006-015-016-023>025-035-036-271400-
   NORTH CENTRAL IOWA

CITY           SKY/WX    TMP DP  RH WIND       PRES   REMARKS
ALGONA *       CLEAR     -8 -15  71 NW9       30.50R WCI -25
CLARION *      CLOUDY    -8 -15  71 N10       30.50R WCI -26
ESTHERVILLE    PTCLDY   -10 -14  82 NW10      30.48S WCI -29
FORT DODGE *   PTCLDY    -4 -11  71 NW8       30.51R WCI -19
MASON CITY     PTCLDY    -7 -12  79 NW10      30.48R WCI -25
FOREST CITY *    N/A     -6  -9  84 NW10      30.46S WCI -23
IOWA FALLS *     N/A     -2  -8  78 NW13      30.49R WCI -21
$$

IAZ007>011-017>019-026>030-037>042-050>054-066-271400-
   NORTHEAST IOWA

CITY           SKY/WX    TMP DP  RH WIND       PRES   REMARKS
CEDAR RAPIDS   CLOUDY    15  12  88 NW18      30.41R WCI  -2
CHARLES CITY * CLEAR      0  -8  71 NW14      30.45R WCI -19
CLINTON *      CLOUDY    25  18  74 NW13      30.39R WCI  13
DECORAH *      CLEAR      7   0  72 NW12G20   30.40R WCI  -9
DUBUQUE        CLOUDY    20  14  77 NW12      30.35R WCI   8
MONTICELLO *   CLOUDY    19  14  79 NW14G21   30.38R WCI   6
OELWEIN *      PTCLDY     7   1  78 NW14      30.42R WCI -10
WATERLOO       CLEAR      3  -2  79 NW10      30.46R WCI -12
$$

IAZ064-065-067-068-078-271400-
   EAST CENTRAL IOWA

CITY           SKY/WX    TMP DP  RH WIND       PRES   REMARKS
DAVENPORT      CLOUDY    23  17  78 NW17      30.37S WCI   9
IOWA CITY      CLOUDY    18  13  80 NW17G24   30.44R WCI   3
MT. PLEASANT * CLOUDY    19  14  79 NW12      30.44R WCI   7
MUSCATINE *    FLURRIES  21  16  79 NW17      30.43R WCI   7
QUAD CITIES    CLOUDY    25  19  78 NW17G23   30.38R WCI  12
$$

IAZ062-063-075>077-085>089-095>099-271400-
   SOUTHEAST IOWA

CITY           SKY/WX    TMP DP  RH WIND       PRES   REMARKS
BURLINGTON     CLOUDY    22  18  85 NW16G22   30.41R WCI   8
FAIRFIELD *    CLOUDY    18  10  73 W14       30.46R WCI   4
FORT MADISON * CLOUDY    25  19  80 W16       30.44R WCI  12
KEOKUK *       MIX PCPN  25  21  86 NW10      30.44R WCI  15
OSKALOOSA *    MOCLDY    10   7  85 NW12      30.48R WCI  -4
CENTERVILLE *  CLOUDY    18  16  93 NW10      30.48R WCI   6
OTTUMWA        CLOUDY    15  10  80 NW17      30.46R WCI  -1
WASHINGTON *   CLOUDY    18  18 100 NW14      30.44R WCI   4
$$

ABBREVIATIONS USED IN REMARKS
   TC - TEMPERATURES IN CELSIUS
  WCI - WIND CHILL INDEX
   HX - HEAT INDEX
  VSB - VISIBILITY
$$



USA.gov is the U.S. government's official web portal to all federal, state and local government web resources and services.